Location: *
(35.2348°S, 91.3916°E)
Time: 17:37:09
(UTC+00:00)

SJ 16-02 - Pass Details

Date: 23 October 2019
Orbit: 607 x 616 km, 75.0° (Epoch: 15 November)

Event Time Altitude Azimuth Distance (km) Brightness Sun altitude
Exits shadow 16:08:42 13° 213° (SSW) 1,809 4.4 -38.7°
Drops below altitude 10° 16:09:32 10° 203° (SSW) 1,996 4.7 -38.8°
Sets 16:12:33 0° 182° (S) 2,913 5.6 -39.0°
